Location: Cuzcurrita-R�o Tir�n
(42.5415°N, 2.9642°W)
Time: 20:47:58
(UTC+00:00)

ISS - Pass Details

Date: 17 January 2021
Orbit: 417 x 422 km, 51.6° (Epoch: 03 March)

Event Time Altitude Azimuth Distance (km) Brightness Sun altitude
Rises 18:21:16 0° 191° (S) 2,355 0.4 -13.6°
Reaches altitude 10° 18:24:04 10° 165° (SSE) 1,498 -1.0 -14.1°
Maximum altitude 18:25:56 14° 131° (SE) 1,272 -1.6 -14.4°
Enters shadow 18:25:59 14° 130° (SE) 1,272 -1.7 -14.4°
